STARLINK-34548

Last updated on Sat Jul 19 2025 00:02:08 GMT+0000 (Coordinated Universal Time)

1 64716U 25142W 25199.56382136 -.00235953 00000+0 -37359-2 0 9995 2 64716 70.0004 194.6794 0003552 277.1736 82.9047 15.54037756 4114
UTC large
Height (km)
Speed (km/s)
/
Latitude / Longitude
Inclination (degrees)
Orbital Period (minutes)
Azimuth
Elevation
Range (km)
Doppler Factor

Next 0 passes for location: London (51.5072 / 0.1276)

Sorry there are no passes over London.